[[{"header":{"parameterUnit":"m.s-1","parameterCategory":1,"la1":30.2991,"la2":30.254,"lo1":-89.0895,"lo2":-89.0444,"dy":0.0017,"dx":0.0017,"nx":28,"ny":28,"refTime":"2023-10-07T03:00:00:Z","depth":0,"parameterNumber":2,"parameterNumberName":"U-component_of_WINDS"},"data":[0,0,0,0,0,0,0,0,0,0,0,0,0,0,0,0,0,0,0,0,0,0,0,0,0,0,0,0,0,0,0,0,0,0,0,0,0,0,0,0,0,0,0,0,0,0,0,0,0,0,0,0,0,0,0,0,0,0,1.0166,1.0166,0,1.0162,1.0162,1.0162,1.0118,1.0117,1.0116,1.0115,1.0112,1.0113,1.0114,0,0,0,0,0,0,0,0,0,0,0,0,0,1.0139,1.014,1.0166,1.0166,1.0166,1.0162,1.0162,1.0162,1.0119,1.0117,1.0116,1.0115,1.0112,1.0113,1.0114,0,0,0,0,0,0,0,0,0,0,0,0,0,1.0145,1.014,1.0166,1.0144,1.0142,1.0162,1.0162,1.0162,1.0119,1.0117,1.0116,1.0114,1.0112,1.0113,1.0114,1.0156,0,0,1.0119,1.0119,0,0,0,0,0,0,0,0,1.0145,1.0146,1.0147,1.0146,1.0143,1.0139,1.0151,1.016,1.0119,1.0128,1.0115,1.0113,1.0123,1.0123,1.0126,1.0156,1.0156,1.0119,1.012,1.012,1.0121,0,0,0,0,0,0,0,1.0144,1.0146,1.0165,1.0147,1.0145,1.0135,1.0134,1.0153,1.0135,1.0127,1.0124,1.0124,1.0121,1.0125,1.0126,1.0156,1.0119,1.012,1.0121,1.0122,1.0222,1.0223,0,0,0,0,0,0,1.0147,1.0146,1.0165,1.0165,1.014,1.0137,1.0136,1.0142,1.0134,1.0131,1.0125,1.0122,1.0123,1.0124,1.0125,1.0174,1.012,1.0122,1.0123,1.022,1.0222,1.0224,0,0,0,0,0,0,1.0146,1.0149,1.0165,1.0154,1.0156,1.0139,1.0147,1.0143,1.0146,1.0133,1.013,1.0132,1.0122,1.0123,1.0149,1.0173,1.0122,1.0124,1.0218,1.022,1.0223,1.0272,0,0,0,0,0,0,1.0146,1.0149,1.0164,1.0155,1.0156,1.0188,1.0148,1.0144,1.0149,1.0144,1.0138,1.0136,1.0121,1.0147,1.015,1.0174,1.0125,1.0215,1.0219,1.0222,1.0268,1.0276,1.0283,0,0,0,0,0,1.0145,1.0178,1.0165,1.0167,1.0174,1.0189,1.019,1.0172,1.0151,1.0166,1.0158,1.0136,1.0171,1.015,1.0153,1.0178,1.0214,1.0218,1.0222,1.0265,1.0274,1.0282,0,0,0,0,0,0,1.019,1.0176,1.0161,1.0192,1.0192,1.0182,1.02,1.0183,1.0189,1.0184,1.0162,1.0161,1.0191,1.0187,1.0165,1.0219,1.0188,1.0193,1.022,1.0229,1.0236,1.0236,1.0126,0,0,0,0,0,1.0203,1.0216,1.0203,1.0232,1.0233,1.0217,1.0223,1.0209,1.0208,1.0208,1.0201,1.0202,1.0213,1.0221,1.0231,1.0268,1.0266,1.0287,1.0294,1.03,1.0304,1.0325,1.0334,1.0237,1.0237,1.0237,0,0,1.0231,1.0225,1.0234,1.0241,1.0239,1.0254,1.0217,1.0234,1.0244,1.0211,1.0234,1.023,1.023,1.0262,1.0275,1.026,1.0331,1.0305,1.031,1.0311,1.033,1.0339,1.0347,1.024,1.024,1.0239,0,0,1.0289,1.0286,1.0309,1.0309,1.0307,1.0297,1.0303,1.0296,1.0291,1.0315,1.029,1.0303,1.0323,1.0324,1.0327,1.0388,1.0368,1.0392,1.043,1.045,1.0458,1.0464,1.0486,1.0494,1.0396,1.0396,1.0396,0,1.0324,1.0344,1.0324,1.0342,1.0346,1.0317,1.0341,1.0342,1.0344,1.0348,1.033,1.0355,1.0353,1.0385,1.04,1.0403,1.041,1.0392,1.0458,1.0464,1.047,1.0491,1.0499,1.0399,1.0399,1.0399,1.0398,0,1.0387,1.0401,1.0421,1.0423,1.043,1.0451,1.0436,1.0445,1.0431,1.0423,1.0448,1.0445,1.0454,1.0461,1.0447,1.0491,1.0482,1.0462,1.043,1.0483,1.0502,1.051,1.0403,1.0402,1.0401,1.0401,0,0,1.0471,1.0463,1.0471,1.0472,1.0469,1.048,1.0502,1.051,1.0518,1.0521,1.0539,1.0557,1.0539,1.0542,1.0529,1.0547,1.0597,1.0525,1.0525,1.0538,1.0646,1.0661,1.067,1.0584,1.0586,1.0587,1.0646,0,1.0527,1.0561,1.0545,1.0581,1.0595,1.0569,1.0587,1.0588,1.0582,1.0593,1.0587,1.06,1.0575,1.0577,1.0594,1.0587,1.0618,1.0583,1.0601,1.0601,1.0601,1.068,1.0695,1.0751,1.0653,1.0655,1.0655,0,1.0595,1.0601,1.0639,1.0635,1.064,1.0657,1.0664,1.0676,1.0677,1.0671,1.0676,1.066,1.0681,1.0651,1.0681,1.0658,1.0664,1.0663,1.0664,1.0665,1.0631,1.0682,1.0768,1.0777,1.0667,1.0666,1.0665,0,1.0653,1.0671,1.0696,1.0698,1.0694,1.0706,1.0705,1.0705,1.0711,1.0718,1.0722,1.0732,1.0737,1.0746,1.0733,1.0712,1.0765,1.0733,1.0761,1.0761,1.0772,1.0771,1.086,1.0778,1.0778,1.0778,1.0777,0,1.0716,1.0741,1.0722,1.0737,1.0764,1.0747,1.0774,1.077,1.0771,1.0786,1.0764,1.0779,1.0761,1.0774,1.0765,1.0791,1.0794,1.079,1.0787,1.0792,1.0792,1.0795,1.0791,1.078,1.0779,1.0779,1.0779,0,1.0784,1.0773,1.0798,1.0793,1.0792,1.0812,1.0808,1.0823,1.0816,1.0835,1.0839,1.0828,1.0843,1.0831,1.0846,1.0839,1.0875,1.0866,1.0874,1.0872,1.09,1.0897,1.0993,1.1005,1.0915,1.0916,1.0917,0,1.0825,1.0843,1.084,1.0848,1.0849,1.0863,1.0869,1.0854,1.0862,1.0866,1.088,1.0893,1.0903,1.0928,1.0922,1.0934,1.0926,1.0959,1.0927,1.0932,1.0926,1.0925,1.0927,1.0965,1.0966,1.0966,1.0967,0,1.0899,1.0893,1.0903,1.0912,1.0921,1.0927,1.0932,1.0941,1.0925,1.0935,1.095,1.0958,1.0973,1.0987,1.0997,1.0997,1.098,1.0977,1.0984,1.0989,1.0992,1.0991,1.0891,1.0975,1.0974,1.0974,1.0973,1.0973,1.0954,1.097,1.097,1.0983,1.0985,1.099,1.1004,1.0999,1.1011,1.1022,1.1013,1.1031,1.1034,1.1045,1.1047,1.1062,1.1049,1.1059,1.1061,1.1064,1.1068,1.0991,1.1064,1.1064,1.1064,1.1063,1.1063,0,1.1027,1.1026,1.1038,1.1046,1.1056,1.104,1.1045,1.1055,1.1071,1.1075,1.1085,1.1103,1.1117,1.1113,1.1125,1.1138,1.113,1.1142,1.114,1.1141,1.1079,1.1072,1.1147,1.1147,1.1147,1.1147,1.1147,1.1147,1.1066,1.1091,1.1085,1.1112,1.1111,1.1128,1.1133,1.1138,1.1141,1.1162,1.1173,1.1171,1.1172,1.1184,1.1197,1.1195,1.1201,1.1215,1.1211,1.1153,1.1145,1.1137,1.113,1.1216,1.1216,1.1271,1.1271,1.1272]},{"header":{"parameterUnit":"m.s-1","parameterCategory":1,"la1":30.2991,"la2":30.254,"lo1":-89.0895,"lo2":-89.0444,"dy":0.0017,"dx":0.0017,"nx":28,"ny":28,"refTime":"2023-10-07T03:00:00:Z","depth":0,"parameterNumber":3,"parameterNumberName":"V-component_of_WINDS"},"data":[0,0,0,0,0,0,0,0,0,0,0,0,0,0,0,0,0,0,0,0,0,0,0,0,0,0,0,0,0,0,0,0,0,0,0,0,0,0,0,0,0,0,0,0,0,0,0,0,0,0,0,0,0,0,0,0,0,0,-1.7305,-1.7306,0,-1.7398,-1.7399,-1.74,-1.7478,-1.7479,-1.748,-1.7481,-1.7573,-1.7574,-1.7576,0,0,0,0,0,0,0,0,0,0,0,0,0,-1.7193,-1.7194,-1.7305,-1.7306,-1.7307,-1.7398,-1.7399,-1.74,-1.7478,-1.7479,-1.748,-1.7481,-1.7572,-1.7574,-1.7576,0,0,0,0,0,0,0,0,0,0,0,0,0,-1.7259,-1.7195,-1.7305,-1.7357,-1.7363,-1.7397,-1.7399,-1.74,-1.7478,-1.7479,-1.748,-1.7482,-1.7571,-1.7574,-1.7576,-1.7565,0,0,-1.7584,-1.7585,0,0,0,0,0,0,0,0,-1.7255,-1.7263,-1.7348,-1.7354,-1.736,-1.7428,-1.7393,-1.7456,-1.7478,-1.7434,-1.7481,-1.7482,-1.7523,-1.753,-1.7544,-1.757,-1.7574,-1.7584,-1.7585,-1.7587,-1.7587,0,0,0,0,0,0,0,-1.725,-1.7259,-1.7342,-1.7349,-1.7357,-1.7375,-1.7386,-1.7405,-1.747,-1.7438,-1.7444,-1.7454,-1.7527,-1.7542,-1.7547,-1.7575,-1.7584,-1.7586,-1.7588,-1.7589,-1.7596,-1.7595,0,0,0,0,0,0,-1.7238,-1.7255,-1.7339,-1.7344,-1.731,-1.7376,-1.7388,-1.7405,-1.747,-1.7481,-1.7453,-1.7457,-1.7537,-1.7544,-1.755,-1.7541,-1.7586,-1.7589,-1.759,-1.7597,-1.7595,-1.7594,0,0,0,0,0,0,-1.7235,-1.7245,-1.7335,-1.7301,-1.7314,-1.7377,-1.7394,-1.7406,-1.7421,-1.7481,-1.7493,-1.7456,-1.7538,-1.7547,-1.7561,-1.7546,-1.759,-1.7592,-1.7599,-1.7597,-1.7595,-1.7523,0,0,0,0,0,0,-1.7232,-1.7243,-1.724,-1.7301,-1.7316,-1.7345,-1.7394,-1.7407,-1.7425,-1.7432,-1.7488,-1.7498,-1.754,-1.7557,-1.7564,-1.755,-1.7594,-1.76,-1.7598,-1.7595,-1.7527,-1.7519,-1.7512,0,0,0,0,0,-1.7228,-1.7216,-1.724,-1.725,-1.7314,-1.7344,-1.7352,-1.7401,-1.7424,-1.7421,-1.746,-1.7496,-1.7547,-1.7558,-1.7566,-1.7552,-1.7601,-1.7598,-1.7596,-1.7531,-1.7521,-1.7512,0,0,0,0,0,0,-1.7151,-1.7225,-1.7252,-1.726,-1.7295,-1.7357,-1.7355,-1.7389,-1.7418,-1.7423,-1.7481,-1.7493,-1.7501,-1.7529,-1.754,-1.7545,-1.7579,-1.7577,-1.7527,-1.7518,-1.751,-1.7503,-1.7596,0,0,0,0,0,-1.7136,-1.7155,-1.7218,-1.7219,-1.7235,-1.7292,-1.7307,-1.7341,-1.738,-1.7394,-1.7434,-1.7469,-1.7493,-1.7507,-1.7532,-1.7532,-1.7545,-1.7527,-1.7519,-1.7513,-1.751,-1.7512,-1.7504,-1.7585,-1.7585,-1.7585,0,0,-1.7103,-1.7146,-1.7154,-1.7204,-1.7236,-1.7253,-1.7303,-1.732,-1.7333,-1.7397,-1.7412,-1.7443,-1.7486,-1.7492,-1.7497,-1.7516,-1.7491,-1.7509,-1.7504,-1.7505,-1.7508,-1.75,-1.7493,-1.7583,-1.7583,-1.7583,0,0,-1.7052,-1.7087,-1.7091,-1.7122,-1.7169,-1.7206,-1.7207,-1.7264,-1.7287,-1.7304,-1.7352,-1.7368,-1.7408,-1.7436,-1.7456,-1.7416,-1.745,-1.7423,-1.7382,-1.7383,-1.7377,-1.7371,-1.7356,-1.735,-1.742,-1.742,-1.742,0,-1.7005,-1.7034,-1.7089,-1.7102,-1.7122,-1.7182,-1.7186,-1.7213,-1.7265,-1.7277,-1.7297,-1.7348,-1.7382,-1.7395,-1.7386,-1.74,-1.7402,-1.7416,-1.7373,-1.7369,-1.7364,-1.735,-1.7344,-1.7416,-1.7417,-1.7417,-1.7418,0,-1.6974,-1.6993,-1.6991,-1.704,-1.7061,-1.7069,-1.7124,-1.7138,-1.7171,-1.7206,-1.7222,-1.7265,-1.7299,-1.7305,-1.7337,-1.7323,-1.7333,-1.7363,-1.7397,-1.7352,-1.7339,-1.7335,-1.7411,-1.7412,-1.7413,-1.7414,0,0,-1.6876,-1.6956,-1.6954,-1.6977,-1.7034,-1.7049,-1.706,-1.7095,-1.7105,-1.7139,-1.7149,-1.7182,-1.721,-1.7232,-1.7268,-1.7268,-1.7233,-1.7298,-1.73,-1.7283,-1.7219,-1.7195,-1.7188,-1.7257,-1.7256,-1.7255,-1.7215,0,-1.6833,-1.6857,-1.6906,-1.6914,-1.6932,-1.6989,-1.6999,-1.7034,-1.7067,-1.7087,-1.7124,-1.7145,-1.7181,-1.7195,-1.7198,-1.7236,-1.722,-1.724,-1.7265,-1.7265,-1.7251,-1.7182,-1.7157,-1.7116,-1.721,-1.721,-1.7209,0,-1.6786,-1.6817,-1.6827,-1.6882,-1.6892,-1.6899,-1.6935,-1.6953,-1.6994,-1.7018,-1.7043,-1.7083,-1.7097,-1.713,-1.7149,-1.7162,-1.7175,-1.7196,-1.7195,-1.7198,-1.7233,-1.7181,-1.7105,-1.7098,-1.7202,-1.7203,-1.7203,0,-1.6712,-1.6757,-1.6768,-1.6787,-1.6851,-1.6855,-1.6882,-1.6925,-1.6942,-1.6973,-1.6985,-1.7017,-1.7034,-1.7057,-1.7104,-1.7124,-1.7118,-1.7155,-1.7137,-1.7136,-1.7132,-1.7131,-1.7055,-1.7143,-1.7143,-1.7143,-1.7143,0,-1.6658,-1.6661,-1.6736,-1.6743,-1.6748,-1.6804,-1.6808,-1.684,-1.6877,-1.6891,-1.6942,-1.6954,-1.7016,-1.7035,-1.7072,-1.7082,-1.709,-1.7109,-1.7118,-1.7103,-1.71,-1.7111,-1.7115,-1.7142,-1.7142,-1.7142,-1.7143,0,-1.6576,-1.6626,-1.6642,-1.6702,-1.6718,-1.6718,-1.677,-1.6778,-1.6815,-1.6832,-1.6839,-1.6896,-1.6921,-1.6971,-1.7009,-1.7034,-1.7034,-1.7052,-1.702,-1.7026,-1.7005,-1.7006,-1.6932,-1.6924,-1.7018,-1.7017,-1.7016,0,-1.6537,-1.6541,-1.6602,-1.6615,-1.664,-1.6661,-1.6679,-1.6735,-1.6752,-1.6798,-1.6801,-1.683,-1.6855,-1.6892,-1.6936,-1.6966,-1.6984,-1.6956,-1.6988,-1.6973,-1.6982,-1.698,-1.698,-1.6948,-1.6947,-1.6945,-1.6945,0,-1.6463,-1.6488,-1.6512,-1.6545,-1.6566,-1.6595,-1.6626,-1.6634,-1.6697,-1.6713,-1.6739,-1.6759,-1.6798,-1.6826,-1.6862,-1.6889,-1.6927,-1.6934,-1.6932,-1.6915,-1.6896,-1.6905,-1.6999,-1.6935,-1.6936,-1.6937,-1.6937,-1.6938,-1.64,-1.6406,-1.645,-1.6475,-1.6505,-1.6533,-1.6544,-1.6583,-1.6605,-1.6642,-1.6674,-1.6696,-1.6737,-1.679,-1.6815,-1.6833,-1.6851,-1.6848,-1.6846,-1.6844,-1.6837,-1.6895,-1.684,-1.684,-1.6841,-1.6841,-1.6841,0,-1.6327,-1.6358,-1.6382,-1.6424,-1.6444,-1.6479,-1.6516,-1.653,-1.6549,-1.6585,-1.6609,-1.6639,-1.6666,-1.6713,-1.6744,-1.6749,-1.6767,-1.6755,-1.6754,-1.676,-1.682,-1.6818,-1.674,-1.674,-1.674,-1.674,-1.674,-1.674,-1.6292,-1.6303,-1.6333,-1.6359,-1.639,-1.6413,-1.6431,-1.6457,-1.6485,-1.6516,-1.6539,-1.657,-1.661,-1.6644,-1.667,-1.6684,-1.6692,-1.6674,-1.6692,-1.6746,-1.6756,-1.6765,-1.6764,-1.6676,-1.6676,-1.6631,-1.6631,-1.663]}]]